Volver al catálogo

YAOGAN 24

ActivoMilitarSSO
NORAD 40310·PAYLOAD·🇨🇳 China

Lanzado Nov 20, 2014 desde Jiuquan Satellite Launch Center

Loading…

Próximos Pases (próximas 24 horas)

TLE

ActualizadoSource: Space-Track

Época: Sep 14, 2026, 15:01 UTC

1 40310U 14072A   26257.62572616  .00000629  00000-0  98585-4 0  9995
2 40310  98.1621  35.7741 0014090 343.5588  16.5162 14.76181937636917

Sigue YAOGAN 24 en tiempo real con AllMySat

Download on the App Store